Weather History for Rock Hill, SC

Change the Weather History Date:

Friday, February 15, 2013

  Actual Average Record
Temperature  
Mean Temperature 44 °F -  
Max Temperature 61 °F 58 °F 79 °F (1989)
Min Temperature 28 °F 37 °F 18 °F (1960)
Degree Days  
Heating Degree Days 20    
Moisture  
Dew Point 32 °F    
Average Humidity 65    
Maximum Humidity 100    
Minimum Humidity 30    
Precipitation  
Precipitation 0.00 in - - ()
Sea Level Pressure  
Sea Level Pressure 30.03 in    
Wind  
Wind Speed 3 mph (SW)    
Max Wind Speed 12 mph    
Max Gust Speed -    
Visibility 8 miles    
Events      
Averages and records for this station are not official NWS values.
T = Trace of Precipitation, MM = Missing Value Source: NWS Daily Summary

Daily Weather History Graph

Daily Weather History Graph

Search for Another Location

Airport:

Trip Planner

Search our weather history database for the weather conditions in past years. The results will help you decide how hot, cold, wet, or windy it might be!

Date:

Astronomy

Feb. 15, 2013 Rise Set
Actual Time 7:09 AM EST 6:07 PM EST
Civil Twilight 6:44 AM EST 6:33 PM EST
Nautical Twilight 6:14 AM EST 7:02 PM EST
Astronomical Twilight 5:44 AM EST 7:32 PM EST
Moon 10:00 AM EST (2/15) 11:50 PM EST (2/15)
Length of Visible Light 11h 49m
Length of Day
10h 57m
Waxing Crescent, 30% of the Moon is Illuminated
Feb 15
Waxing Crescent
Feb 17
First Quarter
Feb 25
Full
Mar 4
Last Quarter
Mar 11
New

Hourly Weather History & Observations

Time (EST) Temp. Windchill Dew Point Humidity Pressure Visibility Wind Dir Wind Speed Gust Speed Precip Events Conditions
12:54 AM 32.0 °F 28.7 °F 32.0 °F 100% 30.09 in 8.0 mi WSW 3.5 mph - N/A   Clear
1:54 AM 32.0 °F - 32.0 °F 100% 30.09 in 5.0 mi Calm Calm - N/A   Clear
2:54 AM 32.0 °F - 30.9 °F 96% 30.07 in 6.0 mi Calm Calm - N/A   Clear
3:54 AM 30.0 °F - 28.9 °F 96% 30.07 in 6.0 mi Calm Calm - N/A   Clear
4:54 AM 30.9 °F - 30.0 °F 96% 30.08 in 8.0 mi Calm Calm - N/A   Clear
5:54 AM 28.9 °F - 28.9 °F 100% 30.09 in 6.0 mi Calm Calm - N/A   Clear
6:54 AM 28.0 °F - 28.0 °F 100% 30.11 in 5.0 mi Calm Calm - N/A   Clear
7:54 AM 30.9 °F - 30.9 °F 100% 30.11 in 4.0 mi Calm Calm - N/A   Clear
8:54 AM 44.1 °F - 39.9 °F 85% 30.12 in 7.0 mi Calm Calm - N/A   Clear
9:54 AM 51.1 °F - 37.9 °F 61% 30.10 in 10.0 mi Calm Calm - N/A   Clear
10:54 AM 55.9 °F - 34.0 °F 44% 30.09 in 10.0 mi Variable 6.9 mph - N/A   Clear
11:54 AM 59.0 °F - 33.1 °F 38% 30.08 in 10.0 mi SSE 5.8 mph - N/A   Clear
12:54 PM 59.0 °F - 28.9 °F 32% 30.05 in 10.0 mi Variable 5.8 mph - N/A   Clear
1:54 PM 61.0 °F - 30.0 °F 31% 30.02 in 10.0 mi SW 11.5 mph - N/A   Clear
2:54 PM 61.0 °F - 28.9 °F 30% 29.98 in 10.0 mi WSW 11.5 mph - N/A   Clear
3:54 PM 61.0 °F - 28.9 °F 30% 29.97 in 10.0 mi WNW 6.9 mph - N/A   Clear
4:54 PM 60.1 °F - 30.0 °F 32% 29.95 in 10.0 mi SW 6.9 mph - N/A   Clear
5:54 PM 55.0 °F - 30.9 °F 40% 29.96 in 10.0 mi SW 6.9 mph - N/A   Clear
6:54 PM 53.1 °F - 32.0 °F 45% 29.97 in 10.0 mi South 4.6 mph - N/A   Clear
7:54 PM 45.0 °F 42.6 °F 33.1 °F 63% 29.97 in 10.0 mi South 4.6 mph - N/A   Clear
8:54 PM 46.0 °F 43.1 °F 33.1 °F 61% 29.96 in 10.0 mi SW 5.8 mph - N/A   Clear
9:54 PM 50.0 °F - 34.0 °F 54% 29.96 in 10.0 mi WNW 8.1 mph - N/A   Mostly Cloudy
10:54 PM 48.0 °F - 36.0 °F 63% 29.97 in 10.0 mi North 9.2 mph - N/A   Clear
11:54 PM 46.9 °F - 36.0 °F 66% 29.96 in 10.0 mi North 9.2 mph - N/A   Mostly Cloudy